[[{"header":{"parameterUnit":"m.s-1","parameterCategory":2,"la1":30.2991,"la2":30.254,"lo1":-89.0895,"lo2":-89.0444,"dy":0.0017,"dx":0.0017,"nx":28,"ny":28,"refTime":"2023-08-15T09:00:00:Z","depth":"0","parameterNumber":2,"parameterNumberName":"U-component_of_CURRENTS"},"data":[0,0,0,0,0,0,0,0,0,0,0,0,0,0,0,0,0,0,0,0,0,0,0,0,0,0,0,0,0,0,0,0,0,0,0,0,0,0,0,0,0,0,0,0,0,0,0,0,0,0,0,0,0,0,0,0,0,0,0.3138,0.3139,0,0.3231,0.3232,0.3232,0.3229,0.3228,0.3227,0.3226,0.3258,0.3259,0.3261,0,0,0,0,0,0,0,0,0,0,0,0,0,0.2904,0.2908,0.3138,0.3139,0.3141,0.3231,0.3232,0.3233,0.3229,0.3228,0.3227,0.3226,0.3257,0.3259,0.3261,0,0,0,0,0,0,0,0,0,0,0,0,0,0.2997,0.291,0.3137,0.3154,0.3157,0.3231,0.3232,0.3233,0.3229,0.3228,0.3227,0.3226,0.3257,0.3259,0.3261,0.3299,0,0,0.3268,0.3269,0,0,0,0,0,0,0,0,0.2992,0.3005,0.315,0.3153,0.3157,0.3222,0.3161,0.3254,0.3229,0.3196,0.3226,0.3225,0.3245,0.3248,0.3261,0.3301,0.3302,0.3269,0.327,0.3271,0.3272,0,0,0,0,0,0,0,0.2985,0.3001,0.3169,0.3152,0.3156,0.314,0.3152,0.3178,0.322,0.3198,0.32,0.322,0.3245,0.3259,0.3262,0.3303,0.3269,0.3271,0.3272,0.3273,0.3522,0.3527,0,0,0,0,0,0,0.2991,0.2995,0.3166,0.3172,0.3076,0.3146,0.3158,0.3198,0.3221,0.3226,0.3221,0.3219,0.3255,0.3259,0.3263,0.3385,0.3271,0.3273,0.3275,0.3517,0.3523,0.3529,0,0,0,0,0,0,0.2985,0.3006,0.3162,0.3088,0.3108,0.3152,0.3195,0.32,0.3217,0.324,0.3242,0.3233,0.3254,0.3259,0.3333,0.3382,0.3274,0.3277,0.3511,0.3519,0.3526,0.358,0,0,0,0,0,0,0.2979,0.3004,0.3036,0.309,0.3113,0.3225,0.3197,0.3203,0.3233,0.3232,0.3251,0.3253,0.3254,0.333,0.3335,0.3384,0.3278,0.3504,0.3515,0.3524,0.3571,0.3588,0.3603,0,0,0,0,0,0.297,0.3036,0.3037,0.3058,0.3156,0.3227,0.3237,0.3258,0.3235,0.3262,0.3294,0.3252,0.3396,0.3336,0.3341,0.3391,0.35,0.3512,0.3523,0.3564,0.3585,0.3603,0,0,0,0,0,0,0.2963,0.3044,0.3046,0.3135,0.3179,0.3229,0.3263,0.3264,0.3308,0.3305,0.3305,0.3312,0.3405,0.3407,0.334,0.3505,0.3447,0.346,0.3477,0.3496,0.3512,0.3489,0.328,0,0,0,0,0,0.2975,0.3037,0.3098,0.3167,0.3189,0.3218,0.3248,0.3263,0.3308,0.3323,0.3345,0.339,0.346,0.348,0.354,0.3608,0.3647,0.3657,0.3673,0.3685,0.368,0.3806,0.3831,0.3568,0.3567,0.3567,0,0,0.2992,0.3043,0.308,0.3167,0.3195,0.324,0.3232,0.3289,0.3327,0.3322,0.3387,0.3445,0.3499,0.3597,0.3637,0.3595,0.3794,0.37,0.3709,0.3697,0.382,0.3845,0.3867,0.3576,0.3574,0.3573,0,0,0.3042,0.3098,0.315,0.3191,0.3249,0.3272,0.3287,0.3346,0.3372,0.3445,0.3478,0.3572,0.3637,0.371,0.3747,0.3889,0.3883,0.3913,0.3949,0.4073,0.4093,0.4112,0.4227,0.4255,0.3905,0.3906,0.3906,0,0.3048,0.3123,0.3176,0.3225,0.3255,0.3282,0.3322,0.3369,0.3446,0.3487,0.3474,0.3651,0.3695,0.383,0.3893,0.3917,0.3982,0.3856,0.4087,0.4106,0.4124,0.4237,0.4268,0.391,0.3909,0.3909,0.3908,0,0.312,0.3174,0.321,0.3271,0.3318,0.3364,0.3423,0.3475,0.3497,0.3546,0.3682,0.3769,0.3866,0.3919,0.3939,0.4109,0.4115,0.4096,0.4017,0.4153,0.4265,0.4296,0.3915,0.3914,0.3913,0.3912,0,0,0.312,0.3233,0.3237,0.3256,0.3338,0.3375,0.3457,0.3539,0.3586,0.368,0.3761,0.3922,0.3965,0.4016,0.4078,0.4186,0.439,0.4192,0.4196,0.4269,0.467,0.4624,0.4652,0.4404,0.4409,0.4413,0.4706,0,0.3135,0.3217,0.3277,0.3333,0.3369,0.3427,0.3491,0.3577,0.365,0.3745,0.3863,0.397,0.4002,0.4058,0.4181,0.4344,0.4469,0.4312,0.456,0.4567,0.4478,0.4685,0.453,0.4773,0.4736,0.4741,0.4744,0,0.3157,0.3209,0.3272,0.3344,0.3362,0.3404,0.3495,0.3563,0.3715,0.3774,0.3906,0.3995,0.4199,0.4179,0.4514,0.4412,0.455,0.4659,0.4673,0.4621,0.4578,0.4633,0.483,0.4611,0.4791,0.4787,0.4784,0,0.3096,0.3188,0.3229,0.3258,0.3359,0.3395,0.3441,0.3575,0.3634,0.3803,0.3865,0.4092,0.4209,0.4424,0.466,0.4606,0.5006,0.4953,0.5045,0.5043,0.4954,0.4934,0.4928,0.5185,0.5184,0.5183,0.5182,0,0.308,0.3101,0.32,0.3222,0.3259,0.3346,0.3405,0.3489,0.3617,0.3703,0.3872,0.3988,0.4276,0.4522,0.4713,0.4997,0.5063,0.5101,0.5134,0.4974,0.4954,0.4788,0.4671,0.5194,0.5192,0.519,0.5188,0,0.3009,0.3077,0.3116,0.321,0.3237,0.3259,0.335,0.3399,0.3527,0.3648,0.3703,0.3968,0.4291,0.458,0.4958,0.5062,0.5188,0.5398,0.5189,0.519,0.5008,0.4902,0.488,0.4761,0.555,0.5551,0.5552,0,0.2982,0.3002,0.3082,0.3101,0.3141,0.3188,0.3224,0.334,0.34,0.3635,0.3692,0.402,0.424,0.4772,0.5072,0.5432,0.5232,0.5425,0.5281,0.5016,0.4925,0.4739,0.4625,0.5217,0.5215,0.5213,0.5212,0,0.2926,0.2951,0.2985,0.3027,0.306,0.309,0.3154,0.3181,0.3335,0.3461,0.3664,0.3857,0.4357,0.4644,0.5085,0.5297,0.5116,0.5396,0.5193,0.4733,0.4464,0.4356,0.4994,0.5196,0.5198,0.5199,0.52,0.52,0.287,0.287,0.2919,0.2949,0.2971,0.2988,0.2992,0.3082,0.3175,0.3344,0.3568,0.3812,0.4172,0.4782,0.4938,0.5043,0.5061,0.4955,0.4882,0.4744,0.4501,0.5097,0.527,0.5271,0.5273,0.5274,0.5276,0,0.2813,0.2828,0.2845,0.2868,0.2845,0.29,0.294,0.2946,0.3029,0.3226,0.3413,0.3736,0.4013,0.4294,0.4575,0.4511,0.4396,0.4421,0.4095,0.4037,0.465,0.4498,0.4421,0.4421,0.4421,0.4421,0.4422,0.4422,0.279,0.2789,0.2802,0.2754,0.2751,0.2715,0.272,0.2764,0.2867,0.3018,0.3176,0.3368,0.3692,0.3937,0.3952,0.3949,0.3642,0.3591,0.3546,0.3905,0.3946,0.3984,0.3811,0.3592,0.3591,0.2817,0.2811,0.2806]},{"header":{"parameterUnit":"m.s-1","parameterCategory":2,"la1":30.2991,"la2":30.254,"lo1":-89.0895,"lo2":-89.0444,"dy":0.0017,"dx":0.0017,"nx":28,"ny":28,"refTime":"2023-08-15T09:00:00:Z","depth":"0","parameterNumber":3,"parameterNumberName":"V-component_of_CURRENTS"},"data":[0,0,0,0,0,0,0,0,0,0,0,0,0,0,0,0,0,0,0,0,0,0,0,0,0,0,0,0,0,0,0,0,0,0,0,0,0,0,0,0,0,0,0,0,0,0,0,0,0,0,0,0,0,0,0,0,0,0,0.0563,0.0562,0,0.0504,0.0503,0.0503,0.0415,0.0414,0.0412,0.0411,0.0271,0.0268,0.0266,0,0,0,0,0,0,0,0,0,0,0,0,0,0.0523,0.0524,0.0563,0.0562,0.0562,0.0504,0.0503,0.0503,0.0416,0.0414,0.0412,0.041,0.0271,0.0269,0.0266,0,0,0,0,0,0,0,0,0,0,0,0,0,0.051,0.0525,0.0563,0.0511,0.0506,0.0504,0.0503,0.0502,0.0416,0.0414,0.0411,0.0409,0.0272,0.0269,0.0266,0.0291,0,0,0.0255,0.0254,0,0,0,0,0,0,0,0,0.0511,0.0512,0.052,0.0515,0.0509,0.0465,0.0438,0.0428,0.0417,0.045,0.0411,0.0408,0.033,0.0321,0.0317,0.0284,0.0278,0.0255,0.0253,0.0251,0.025,0,0,0,0,0,0,0,0.0512,0.0513,0.054,0.0519,0.0512,0.0464,0.046,0.0435,0.0402,0.0447,0.0441,0.0435,0.0326,0.032,0.0313,0.0276,0.0255,0.0252,0.025,0.0248,0.0284,0.0287,0,0,0,0,0,0,0.0526,0.0515,0.0542,0.0538,0.0504,0.0467,0.0463,0.0481,0.0404,0.0391,0.0437,0.0431,0.0327,0.0317,0.0307,0.0362,0.0251,0.0248,0.0246,0.0281,0.0285,0.0288,0,0,0,0,0,0,0.0526,0.053,0.0544,0.0523,0.0521,0.0471,0.0492,0.0481,0.0467,0.0397,0.0381,0.0431,0.0325,0.0312,0.0313,0.0354,0.0246,0.0243,0.0278,0.0282,0.0286,0.0452,0,0,0,0,0,0,0.0526,0.0531,0.0552,0.0525,0.0523,0.0561,0.0493,0.0482,0.0467,0.0458,0.0388,0.0373,0.0322,0.0319,0.0309,0.0347,0.0241,0.0274,0.028,0.0285,0.0442,0.0461,0.0477,0,0,0,0,0,0.0525,0.0582,0.0554,0.0557,0.0554,0.0563,0.0559,0.0513,0.0469,0.0486,0.0447,0.0374,0.0347,0.0319,0.0307,0.0345,0.0271,0.0278,0.0285,0.0434,0.0457,0.0477,0,0,0,0,0,0,0.0592,0.0577,0.0546,0.0599,0.0582,0.0549,0.0562,0.0522,0.0505,0.0495,0.0414,0.04,0.0417,0.0366,0.0337,0.0375,0.0297,0.0301,0.0415,0.0436,0.0453,0.0476,0.0238,0,0,0,0,0,0.0613,0.0641,0.0614,0.0654,0.0649,0.0601,0.0597,0.0571,0.0548,0.0536,0.0494,0.0455,0.044,0.0425,0.0406,0.0426,0.0381,0.0444,0.0461,0.0476,0.0491,0.0466,0.0482,0.031,0.031,0.031,0,0,0.0651,0.0645,0.0661,0.0667,0.0646,0.067,0.0594,0.0607,0.0629,0.0526,0.0554,0.0517,0.0462,0.0492,0.0494,0.045,0.0508,0.0485,0.0498,0.0504,0.0475,0.0491,0.0506,0.0315,0.0314,0.0313,0,0,0.0735,0.0733,0.0771,0.0769,0.0753,0.0732,0.0738,0.0717,0.0707,0.0728,0.0669,0.0669,0.0632,0.0621,0.0601,0.0705,0.0605,0.0688,0.0788,0.0765,0.0779,0.079,0.0778,0.0786,0.0692,0.0692,0.0692,0,0.0771,0.0818,0.0787,0.0821,0.0829,0.0765,0.0809,0.0806,0.0792,0.0802,0.0757,0.0743,0.0699,0.0732,0.0773,0.0745,0.071,0.071,0.0787,0.0797,0.0805,0.0789,0.0797,0.0701,0.07,0.0699,0.0698,0,0.0866,0.0906,0.0935,0.095,0.0964,0.0997,0.0981,0.1001,0.0971,0.0958,0.0985,0.0941,0.0926,0.0919,0.0874,0.0925,0.0876,0.0814,0.0731,0.0833,0.081,0.0814,0.0714,0.071,0.0708,0.0706,0,0,0.0931,0.0987,0.0992,0.1018,0.1033,0.1054,0.111,0.1135,0.1168,0.1153,0.1195,0.1183,0.1145,0.1123,0.1071,0.1056,0.1098,0.097,0.0965,0.0955,0.1053,0.1009,0.1009,0.1037,0.1038,0.1039,0.1021,0,0.1,0.1084,0.1101,0.1187,0.1224,0.1214,0.1271,0.1292,0.1292,0.1327,0.1285,0.1302,0.1224,0.1221,0.1203,0.1128,0.1114,0.111,0.0958,0.0955,0.09,0.1014,0.099,0.097,0.1024,0.1025,0.1025,0,0.107,0.1116,0.1208,0.129,0.1307,0.1356,0.1419,0.1466,0.1501,0.1504,0.1511,0.1468,0.1478,0.1376,0.1306,0.1301,0.1201,0.1126,0.1122,0.1024,0.092,0.0873,0.0975,0.0648,0.1031,0.1031,0.103,0,0.1091,0.1192,0.1262,0.1288,0.1372,0.142,0.1462,0.1514,0.1564,0.1615,0.1649,0.1631,0.1626,0.1516,0.1384,0.134,0.1285,0.1194,0.1063,0.1058,0.0981,0.0967,0.0744,0.1134,0.1135,0.1135,0.1135,0,0.1146,0.1206,0.1276,0.1315,0.141,0.1458,0.1556,0.1601,0.1673,0.1751,0.1736,0.1787,0.1655,0.1604,0.1452,0.1301,0.1337,0.1113,0.1061,0.1041,0.1033,0.0695,0.0588,0.1134,0.1134,0.1134,0.1134,0,0.1162,0.1206,0.1293,0.1387,0.1422,0.1484,0.1601,0.1673,0.1743,0.1846,0.187,0.191,0.1868,0.1728,0.1571,0.1396,0.1107,0.1167,0.1166,0.1114,0.0662,0.057,0.0412,0.0335,0.1021,0.102,0.1019,0,0.1176,0.122,0.1325,0.1376,0.1423,0.1517,0.1591,0.1687,0.1768,0.1921,0.1976,0.1999,0.2031,0.1823,0.1554,0.1316,0.1085,0.108,0.0985,0.0662,0.0519,0.0464,0.0407,0.0957,0.0955,0.0954,0.0953,0,0.1206,0.1236,0.1304,0.1398,0.148,0.1586,0.1697,0.1771,0.1902,0.2013,0.2157,0.2209,0.2055,0.1844,0.1527,0.1327,0.0898,0.1047,0.0709,0.0468,0.04,0.0292,0.0941,0.0944,0.0945,0.0945,0.0946,0.0946,0.1215,0.1257,0.1336,0.1433,0.1528,0.1654,0.1748,0.1877,0.2031,0.2228,0.2274,0.239,0.2035,0.1631,0.1331,0.0697,0.0804,0.0464,0.0389,0.0366,0.0263,0.0904,0.0839,0.0839,0.084,0.084,0.084,0,0.1223,0.1282,0.137,0.149,0.1595,0.1652,0.1825,0.1934,0.212,0.2306,0.2449,0.2312,0.1841,0.1335,0.0541,0.0085,-0.0027,-0.0159,-0.0288,-0.0305,0.0232,0.0189,-0.0015,-0.0014,-0.0014,-0.0014,-0.0013,-0.0013,0.123,0.1304,0.1359,0.1526,0.1618,0.1767,0.1873,0.205,0.2204,0.2413,0.2482,0.2524,0.2064,0.0605,-0.0437,-0.0635,-0.0923,-0.0913,-0.1049,-0.0786,-0.0736,-0.0689,-0.0765,-0.1166,-0.1167,-0.1563,-0.1567,-0.1571]}],[{"header":{"parameterUnit":"m.s-1","parameterCategory":2,"la1":30.2991,"la2":30.254,"lo1":-89.0895,"lo2":-89.0444,"dy":0.0017,"dx":0.0017,"nx":28,"ny":28,"refTime":"2023-08-15T09:00:00:Z","depth":"2","parameterNumber":2,"parameterNumberName":"U-component_of_CURRENTS"},"data":[0,0,0,0,0,0,0,0,0,0,0,0,0,0,0,0,0,0,0,0,0,0,0,0,0,0,0,0,0,0,0,0,0,0,0,0,0,0,0,0,0,0,0,0,0,0,0,0,0,0,0,0,0,0,0,0,0,0,0.1601,0.1601,0,0.1691,0.1692,0.1693,0.1826,0.1829,0.1831,0.1833,0.2009,0.2011,0.2014,0,0,0,0,0,0,0,0,0,0,0,0,0,0.1574,0.1574,0.1601,0.1601,0.1602,0.169,0.1692,0.1693,0.1826,0.1829,0.1831,0.1834,0.2008,0.2011,0.2014,0,0,0,0,0,0,0,0,0,0,0,0,0,0.1619,0.1574,0.16,0.1678,0.1685,0.169,0.1692,0.1694,0.1825,0.1829,0.1832,0.1835,0.2007,0.2011,0.2015,0.1975,0,0,0.2027,0.2029,0,0,0,0,0,0,0,0,0.1616,0.162,0.1665,0.1672,0.1681,0.1749,0.1747,0.1791,0.1825,0.1775,0.1833,0.1836,0.1926,0.1937,0.1948,0.1983,0.1991,0.2027,0.203,0.2031,0.2033,0,0,0,0,0,0,0,0.1613,0.1617,0.1638,0.1666,0.1675,0.1718,0.1728,0.1756,0.1834,0.1779,0.1789,0.1794,0.1932,0.1944,0.1954,0.1994,0.2027,0.2031,0.2033,0.2035,0.2231,0.2233,0,0,0,0,0,0,0.1592,0.1613,0.1636,0.1641,0.1653,0.1715,0.1727,0.1725,0.1833,0.1851,0.1791,0.18,0.1936,0.1949,0.196,0.2185,0.2031,0.2035,0.2038,0.2228,0.2231,0.2234,0,0,0,0,0,0,0.159,0.1592,0.1632,0.1628,0.1636,0.1712,0.171,0.1725,0.1865,0.184,0.1861,0.1929,0.1939,0.1955,0.2112,0.2183,0.2037,0.2041,0.2225,0.2229,0.2233,0.2463,0,0,0,0,0,0,0.1589,0.1591,0.164,0.1626,0.1635,0.1737,0.1707,0.1725,0.1854,0.187,0.1962,0.1975,0.1942,0.2107,0.2116,0.2186,0.2044,0.2221,0.2227,0.2232,0.2452,0.2475,0.2494,0,0,0,0,0,0.1588,0.1599,0.1641,0.1647,0.168,0.1741,0.1755,0.1818,0.1859,0.1952,0.202,0.1979,0.2143,0.2115,0.2124,0.2197,0.2219,0.2225,0.2231,0.2443,0.2471,0.2494,0,0,0,0,0,0,0.1586,0.1613,0.1659,0.1676,0.1765,0.1766,0.1835,0.1894,0.2017,0.2057,0.2051,0.207,0.2225,0.218,0.2148,0.226,0.2158,0.2167,0.2315,0.2341,0.2362,0.2326,0.2047,0,0,0,0,0,0.1612,0.1644,0.1698,0.1725,0.178,0.1845,0.1897,0.1957,0.2026,0.2089,0.2149,0.2189,0.223,0.2275,0.2306,0.239,0.2309,0.2426,0.2447,0.2466,0.244,0.2439,0.2458,0.2255,0.2255,0.2255,0,0,0.1611,0.1631,0.1653,0.1734,0.1795,0.1876,0.189,0.2004,0.2075,0.2083,0.2239,0.2301,0.2278,0.2377,0.2433,0.2367,0.2478,0.2474,0.249,0.2453,0.2448,0.2468,0.2485,0.2259,0.2259,0.2258,0,0,0.1597,0.1667,0.1708,0.1779,0.1904,0.1967,0.204,0.2146,0.2222,0.236,0.238,0.25,0.2561,0.2566,0.2559,0.271,0.261,0.2728,0.2796,0.2799,0.2816,0.2829,0.2738,0.2742,0.2716,0.2716,0.2717,0,0.1624,0.1652,0.1739,0.1791,0.1854,0.2027,0.2106,0.2192,0.2344,0.2396,0.2441,0.2589,0.2617,0.2692,0.2749,0.2758,0.2718,0.2714,0.2828,0.284,0.2849,0.2753,0.2754,0.2728,0.2727,0.2726,0.2725,0,0.1641,0.1686,0.1716,0.185,0.195,0.205,0.2178,0.234,0.2467,0.2514,0.2688,0.2759,0.283,0.2869,0.2857,0.2954,0.2889,0.288,0.2768,0.2884,0.2774,0.2771,0.2745,0.2741,0.2737,0.2735,0,0,0.1643,0.1721,0.1742,0.1799,0.1995,0.2074,0.2236,0.2403,0.248,0.2674,0.2758,0.2895,0.2978,0.2977,0.3028,0.3039,0.3096,0.3008,0.3003,0.2922,0.3055,0.2937,0.2919,0.3141,0.3142,0.3143,0.2945,0,0.1667,0.1728,0.1782,0.1907,0.1977,0.2153,0.2243,0.241,0.2554,0.2687,0.2817,0.291,0.2998,0.3067,0.3127,0.3107,0.3102,0.3145,0.2947,0.2937,0.2825,0.2918,0.2805,0.2616,0.2941,0.294,0.294,0,0.1686,0.173,0.182,0.1904,0.1956,0.2074,0.2302,0.2399,0.2589,0.2665,0.2851,0.2943,0.3077,0.3109,0.315,0.319,0.3144,0.3103,0.3095,0.2891,0.2815,0.2553,0.2595,0.2933,0.2933,0.2934,0.2934,0,0.1658,0.1751,0.1829,0.187,0.2015,0.2121,0.2254,0.2427,0.2492,0.2693,0.2757,0.2931,0.3016,0.3056,0.3072,0.3113,0.3036,0.3054,0.2881,0.2867,0.2673,0.2641,0.3032,0.3032,0.3033,0.3033,0.3034,0,0.1634,0.1704,0.1834,0.1878,0.1973,0.2102,0.2232,0.2346,0.2507,0.257,0.2774,0.285,0.3016,0.3039,0.3042,0.2953,0.3015,0.288,0.2829,0.2747,0.2725,0.2922,0.2912,0.3026,0.3027,0.3029,0.303,0,0.159,0.1657,0.1726,0.1884,0.1951,0.2032,0.2218,0.2289,0.2433,0.2549,0.2618,0.2784,0.2826,0.2907,0.289,0.2857,0.2785,0.2719,0.2573,0.251,0.2605,0.2609,0.2495,0.2489,0.2485,0.2481,0.2478,0,0.1548,0.1599,0.173,0.177,0.1866,0.2016,0.2101,0.2254,0.2322,0.2491,0.2521,0.2628,0.2683,0.2612,0.2592,0.2516,0.2637,0.23,0.2366,0.2598,0.2559,0.2571,0.2581,0.2177,0.2171,0.2167,0.2163,0,0.1502,0.1579,0.1637,0.1706,0.18,0.1896,0.205,0.2058,0.223,0.23,0.2382,0.2438,0.2453,0.2375,0.2281,0.2217,0.2325,0.2202,0.2491,0.2347,0.2288,0.2254,0.2276,0.2124,0.2128,0.2131,0.2133,0.2135,0.1441,0.1468,0.155,0.1623,0.173,0.1807,0.1845,0.1948,0.199,0.208,0.2159,0.2202,0.2174,0.2021,0.194,0.1921,0.2034,0.1965,0.1984,0.2006,0.2022,0.1961,0.1731,0.1732,0.1734,0.1735,0.1736,0,0.1378,0.1448,0.148,0.1517,0.1618,0.1768,0.1835,0.1824,0.1833,0.1915,0.1976,0.1743,0.1702,0.1767,0.1694,0.1601,0.1627,0.1548,0.1637,0.1674,0.1708,0.1715,0.1339,0.1338,0.1337,0.1336,0,0,0.1293,0.1317,0.1352,0.1421,0.1559,0.1681,0.1735,0.1674,0.1695,0.1566,0.1607,0.1681,0.1738,0.1535,0.1463,0.1461,0.1569,0.1394,0.1714,0.1862,0.1896,0.1939,0.199,0,0,0,0,0]},{"header":{"parameterUnit":"m.s-1","parameterCategory":2,"la1":30.2991,"la2":30.254,"lo1":-89.0895,"lo2":-89.0444,"dy":0.0017,"dx":0.0017,"nx":28,"ny":28,"refTime":"2023-08-15T09:00:00:Z","depth":"2","parameterNumber":3,"parameterNumberName":"V-component_of_CURRENTS"},"data":[0,0,0,0,0,0,0,0,0,0,0,0,0,0,0,0,0,0,0,0,0,0,0,0,0,0,0,0,0,0,0,0,0,0,0,0,0,0,0,0,0,0,0,0,0,0,0,0,0,0,0,0,0,0,0,0,0,0,-0.0339,-0.0339,0,-0.0336,-0.0336,-0.0336,-0.0337,-0.0337,-0.0337,-0.0337,-0.0358,-0.0359,-0.0359,0,0,0,0,0,0,0,0,0,0,0,0,0,-0.0362,-0.0362,-0.0339,-0.0339,-0.0339,-0.0336,-0.0336,-0.0336,-0.0337,-0.0337,-0.0337,-0.0337,-0.0358,-0.0359,-0.0359,0,0,0,0,0,0,0,0,0,0,0,0,0,-0.0357,-0.0362,-0.0339,-0.0337,-0.0337,-0.0336,-0.0336,-0.0336,-0.0337,-0.0337,-0.0337,-0.0337,-0.0358,-0.0359,-0.036,-0.0369,0,0,-0.0363,-0.0363,0,0,0,0,0,0,0,0,-0.0357,-0.0356,-0.0338,-0.0337,-0.0337,-0.0335,-0.0352,-0.0348,-0.0337,-0.034,-0.0337,-0.0337,-0.0351,-0.0353,-0.0355,-0.037,-0.0371,-0.0363,-0.0363,-0.0364,-0.0364,0,0,0,0,0,0,0,-0.0358,-0.0356,-0.034,-0.0338,-0.0337,-0.0342,-0.0341,-0.0351,-0.0349,-0.0339,-0.0339,-0.0335,-0.0352,-0.0354,-0.0356,-0.0372,-0.0363,-0.0364,-0.0364,-0.0365,-0.0451,-0.0453,0,0,0,0,0,0,-0.0353,-0.0357,-0.034,-0.034,-0.0344,-0.0341,-0.0341,-0.0338,-0.0348,-0.0349,-0.0335,-0.0335,-0.0353,-0.0355,-0.0357,-0.0319,-0.0364,-0.0365,-0.0365,-0.045,-0.0452,-0.0454,0,0,0,0,0,0,-0.0353,-0.0351,-0.034,-0.0346,-0.0345,-0.0341,-0.0338,-0.0338,-0.031,-0.0344,-0.0346,-0.0304,-0.0353,-0.0355,-0.0352,-0.0322,-0.0365,-0.0366,-0.0448,-0.045,-0.0453,-0.0276,0,0,0,0,0,0,-0.0354,-0.0352,-0.034,-0.0346,-0.0344,-0.0308,-0.0338,-0.0338,-0.0309,-0.0308,-0.0319,-0.0322,-0.0353,-0.035,-0.0353,-0.0324,-0.0367,-0.0445,-0.0449,-0.0452,-0.0279,-0.0272,-0.0265,0,0,0,0,0,-0.0355,-0.0329,-0.034,-0.0337,-0.0331,-0.0305,-0.0304,-0.0303,-0.0307,-0.0281,-0.0305,-0.032,-0.0375,-0.0351,-0.0354,-0.0324,-0.0444,-0.0448,-0.0452,-0.0282,-0.0273,-0.0265,0,0,0,0,0,0,-0.032,-0.0327,-0.0339,-0.0313,-0.03,-0.0304,-0.028,-0.0281,-0.0278,-0.0271,-0.0312,-0.0317,-0.0313,-0.0361,-0.0334,-0.0375,-0.0424,-0.0428,-0.0295,-0.0286,-0.028,-0.0232,-0.0368,0,0,0,0,0,-0.0312,-0.0306,-0.0302,-0.0282,-0.027,-0.0271,-0.0258,-0.0249,-0.0251,-0.0247,-0.0253,-0.0294,-0.0339,-0.034,-0.0378,-0.0373,-0.0455,-0.0377,-0.0369,-0.0362,-0.0336,-0.045,-0.0449,-0.0466,-0.0466,-0.0466,0,0,-0.0297,-0.0298,-0.0294,-0.0276,-0.027,-0.0227,-0.0262,-0.0219,-0.0193,-0.0252,-0.0209,-0.0251,-0.0337,-0.034,-0.0345,-0.0364,-0.0409,-0.0367,-0.0359,-0.0337,-0.0454,-0.0452,-0.0449,-0.0469,-0.0468,-0.0468,0,0,-0.0254,-0.0257,-0.0232,-0.0222,-0.0195,-0.0175,-0.0151,-0.0125,-0.0125,-0.0099,-0.0156,-0.0176,-0.0212,-0.0264,-0.0306,-0.0291,-0.037,-0.0315,-0.0218,-0.0329,-0.0327,-0.0326,-0.044,-0.0451,-0.0306,-0.0306,-0.0306,0,-0.0228,-0.0205,-0.0215,-0.0189,-0.016,-0.0141,-0.0083,-0.0084,-0.0058,-0.0054,-0.0066,-0.0127,-0.0185,-0.0218,-0.0218,-0.0265,-0.0343,-0.0223,-0.0312,-0.0313,-0.0315,-0.0433,-0.0446,-0.0298,-0.0299,-0.03,-0.03,0,-0.0172,-0.0153,-0.013,-0.0089,-0.0051,0.0003,0.0017,0.0062,0.008,0.007,0.0066,-0.0006,-0.0034,-0.0079,-0.0134,-0.0173,-0.0231,-0.0284,-0.0309,-0.0301,-0.0428,-0.0445,-0.0286,-0.0289,-0.0292,-0.0294,0,0,-0.0106,-0.0091,-0.0083,-0.0055,0.001,0.0055,0.0112,0.0166,0.0184,0.0202,0.0223,0.0148,0.014,0.0088,0.0019,-0.0074,-0.0165,-0.0159,-0.0168,-0.0229,-0.0408,-0.0342,-0.0356,-0.022,-0.0222,-0.0223,-0.0494,0,-0.0046,0.0014,0.0019,0.0112,0.0162,0.0191,0.0222,0.0261,0.0279,0.0302,0.0243,0.0228,0.0187,0.0182,0.0102,-0.0121,-0.02,-0.0086,-0.0445,-0.0456,-0.0362,-0.037,-0.0323,-0.0549,-0.0512,-0.0515,-0.0517,0,0.0015,0.0052,0.014,0.019,0.0215,0.0285,0.0375,0.0399,0.0407,0.0394,0.0422,0.0387,0.0309,0.0255,-0.0033,0.0046,-0.0135,-0.0309,-0.0325,-0.0326,-0.042,-0.0557,-0.0583,-0.0547,-0.0545,-0.0542,-0.054,0,0.0075,0.0139,0.022,0.0239,0.0303,0.0364,0.0426,0.0451,0.047,0.0487,0.0509,0.0428,0.0377,0.0166,-0.0082,-0.0082,-0.0429,-0.05,-0.0604,-0.0605,-0.0665,-0.0665,-0.0683,-0.0683,-0.0683,-0.0682,-0.0681,0,0.0131,0.019,0.0255,0.0297,0.0391,0.0422,0.0518,0.053,0.0568,0.0603,0.0585,0.06,0.0351,0.0181,-0.0066,-0.036,-0.0413,-0.0575,-0.0657,-0.0605,-0.0596,-0.0673,-0.0668,-0.0692,-0.069,-0.0688,-0.0686,0,0.0171,0.0197,0.0284,0.0377,0.0418,0.049,0.0607,0.0657,0.0661,0.0724,0.0751,0.068,0.0454,0.0211,-0.0191,-0.035,-0.0654,-0.0734,-0.0635,-0.0695,-0.0775,-0.0759,-0.0927,-0.0926,-0.0926,-0.0926,-0.0925,0,0.0186,0.0243,0.0358,0.0419,0.0477,0.0591,0.0667,0.0709,0.077,0.0782,0.0817,0.0683,0.0599,0.0094,-0.0228,-0.0624,-0.0656,-0.0799,-0.0772,-0.073,-0.0796,-0.078,-0.0764,-0.0831,-0.083,-0.0829,-0.0828,0,0.0247,0.0293,0.0362,0.0484,0.0589,0.0703,0.0827,0.0874,0.0918,0.0957,0.0975,0.0915,0.0527,0.0171,-0.029,-0.053,-0.0725,-0.079,-0.0828,-0.0718,-0.0646,-0.0706,-0.0695,-0.0821,-0.0822,-0.0822,-0.0823,-0.0823,0.0278,0.034,0.044,0.0553,0.0679,0.0819,0.0916,0.1018,0.1102,0.1149,0.106,0.095,0.0518,-0.0065,-0.0383,-0.0642,-0.0694,-0.0826,-0.0828,-0.0831,-0.0712,-0.0636,-0.0792,-0.0793,-0.0793,-0.0794,-0.0794,0,0.0342,0.042,0.0519,0.0648,0.0802,0.0875,0.1031,0.1122,0.1236,0.122,0.1209,0.0742,0.0369,-0.0005,-0.0386,-0.0686,-0.071,-0.0744,-0.0734,-0.0741,-0.0747,-0.0622,-0.0681,-0.068,-0.068,-0.068,0,0,0.0366,0.0471,0.0525,0.0743,0.0873,0.1082,0.1184,0.1302,0.1339,0.1242,0.1149,0.091,0.0423,0.0121,-0.0271,-0.0416,-0.0486,-0.044,-0.0511,-0.0458,-0.0458,-0.0788,-0.0602,0,0,0,0,0]}],[{"header":{"parameterUnit":"m.s-1","parameterCategory":2,"la1":30.2991,"la2":30.254,"lo1":-89.0895,"lo2":-89.0444,"dy":0.0017,"dx":0.0017,"nx":28,"ny":28,"refTime":"2023-08-15T09:00:00:Z","depth":"4","parameterNumber":2,"parameterNumberName":"U-component_of_CURRENTS"},"data":[0,0,0,0,0,0,0,0,0,0,0,0,0,0,0,0,0,0,0,0,0,0,0,0,0,0,0,0,0,0,0,0,0,0,0,0,0,0,0,0,0,0,0,0,0,0,0,0,0,0,0,0,0,0,0,0,0,0,0.0474,0.0475,0,0.052,0.0521,0.0521,0.0558,0.0558,0.0559,0.0559,0.0577,0.0577,0.0577,0,0,0,0,0,0,0,0,0,0,0,0,0,0.0437,0.0437,0.0474,0.0475,0.0475,0.052,0.0521,0.0522,0.0558,0.0559,0.0559,0.0559,0.0577,0.0577,0.0577,0,0,0,0,0,0,0,0,0,0,0,0,0,0.0465,0.0438,0.0474,0.0499,0.0502,0.052,0.0521,0.0522,0.0558,0.0559,0.0559,0.056,0.0577,0.0577,0.0577,0.0567,0,0,0.0578,0.0578,0,0,0,0,0,0,0,0,0.0463,0.0466,0.0495,0.0497,0.05,0.0534,0.0515,0.0536,0.0558,0.0536,0.0559,0.056,0.056,0.0561,0.0569,0.0568,0.0569,0.0578,0.0578,0.0578,0.0578,0,0,0,0,0,0,0,0.0461,0.0465,0.0492,0.0495,0.0499,0.0515,0.0519,0.0519,0.0544,0.0538,0.0541,0.0546,0.0561,0.0569,0.057,0.0569,0.0578,0.0578,0.0578,0.0578,0.0589,0.0589,0,0,0,0,0,0,0.0454,0.0463,0.0491,0.0494,0.0483,0.0515,0.052,0.0523,0.0544,0.0549,0.0546,0.0548,0.0568,0.0569,0.057,0.06,0.0578,0.0578,0.0578,0.0589,0.0589,0.0589,0,0,0,0,0,0,0.0453,0.0456,0.0489,0.048,0.0485,0.0515,0.0518,0.0523,0.0551,0.055,0.0554,0.057,0.0569,0.057,0.058,0.0599,0.0578,0.0578,0.0589,0.0589,0.0589,0.0633,0,0,0,0,0,0,0.0452,0.0455,0.0462,0.0479,0.0485,0.0507,0.0517,0.0524,0.0552,0.0555,0.0571,0.0573,0.0569,0.058,0.0581,0.0599,0.0579,0.0588,0.0589,0.0589,0.0632,0.0635,0.0638,0,0,0,0,0,0.045,0.0453,0.0462,0.0466,0.049,0.0508,0.0513,0.0536,0.0552,0.0563,0.0573,0.0573,0.0583,0.058,0.0581,0.06,0.0588,0.0589,0.0589,0.063,0.0634,0.0638,0,0,0,0,0,0,0.044,0.0457,0.0467,0.0475,0.0495,0.0514,0.0529,0.0546,0.0565,0.0572,0.0576,0.0577,0.059,0.0586,0.0584,0.0602,0.0585,0.0586,0.0616,0.062,0.0623,0.0625,0.0579,0,0,0,0,0,0.044,0.0448,0.0467,0.0475,0.0486,0.0512,0.0526,0.0542,0.0558,0.0569,0.0582,0.0588,0.0588,0.0598,0.0593,0.0608,0.0604,0.0619,0.0623,0.0625,0.0626,0.0624,0.0628,0.059,0.059,0.059,0,0,0.0439,0.0449,0.0455,0.0474,0.0493,0.0512,0.0523,0.0547,0.0568,0.0565,0.0599,0.0597,0.0591,0.0604,0.0611,0.0609,0.0637,0.0626,0.0629,0.0627,0.0625,0.0629,0.0632,0.0591,0.0591,0.0591,0,0,0.044,0.0452,0.0462,0.0478,0.0506,0.052,0.0531,0.0562,0.0582,0.0607,0.0607,0.0615,0.0631,0.0627,0.0627,0.0643,0.0647,0.065,0.068,0.0678,0.0682,0.0684,0.0701,0.0704,0.0661,0.0661,0.0661,0,0.044,0.0454,0.0468,0.0484,0.0502,0.0527,0.0547,0.0567,0.0599,0.0614,0.0623,0.0642,0.0638,0.0648,0.0658,0.0651,0.066,0.0669,0.0684,0.0686,0.0688,0.0704,0.0707,0.0663,0.0663,0.0663,0.0662,0,0.0448,0.0466,0.0475,0.0503,0.0522,0.0542,0.057,0.0596,0.0626,0.0645,0.067,0.0668,0.0682,0.0684,0.068,0.0696,0.0702,0.0682,0.0677,0.0695,0.071,0.0713,0.0666,0.0665,0.0665,0.0664,0,0,0.0429,0.0473,0.0477,0.0498,0.0536,0.0551,0.0586,0.0619,0.0648,0.0676,0.0709,0.0713,0.0724,0.0722,0.0721,0.0725,0.0753,0.0723,0.0722,0.0745,0.0773,0.0779,0.0782,0.0745,0.0745,0.0745,0.0785,0,0.0435,0.0467,0.0488,0.0525,0.0546,0.0579,0.0609,0.0641,0.0675,0.071,0.0718,0.0744,0.0736,0.0755,0.0757,0.0747,0.076,0.0745,0.0747,0.0747,0.0754,0.0785,0.0746,0.0787,0.0788,0.0788,0.0789,0,0.0432,0.0458,0.0493,0.0544,0.0557,0.0585,0.0639,0.067,0.0715,0.0742,0.0771,0.0783,0.0802,0.0789,0.0796,0.0793,0.0792,0.0783,0.0784,0.0773,0.0757,0.076,0.0794,0.0793,0.0793,0.0793,0.0792,0,0.0405,0.0458,0.0489,0.0505,0.0564,0.0593,0.0632,0.0682,0.0716,0.0771,0.0801,0.0821,0.0844,0.0837,0.084,0.0824,0.0846,0.0814,0.0817,0.0818,0.0781,0.0778,0.0817,0.0817,0.0817,0.0817,0.0817,0,0.0393,0.0415,0.0485,0.0498,0.0542,0.0592,0.0643,0.0682,0.0746,0.0779,0.0822,0.0846,0.0859,0.0876,0.086,0.0863,0.0866,0.0832,0.0829,0.0801,0.0799,0.0785,0.0781,0.0818,0.0818,0.0818,0.0817,0,0.0347,0.0392,0.0426,0.05,0.0527,0.0559,0.0649,0.0681,0.0754,0.0799,0.0823,0.088,0.0908,0.0923,0.0921,0.0898,0.089,0.0889,0.0888,0.0883,0.0858,0.0855,0.0889,0.0889,0.089,0.089,0.089,0,0.0327,0.0339,0.0413,0.0441,0.0477,0.0541,0.0579,0.0669,0.0704,0.0804,0.0814,0.0886,0.0913,0.0923,0.0935,0.0939,0.0922,0.0926,0.0863,0.0872,0.0865,0.0862,0.0859,0.0891,0.0891,0.0891,0.0892,0,0.0281,0.0306,0.0335,0.0395,0.0443,0.049,0.0559,0.0589,0.0684,0.0749,0.0803,0.0846,0.0889,0.0906,0.0942,0.0925,0.0923,0.0929,0.0927,0.0868,0.0875,0.0867,0.0863,0.0893,0.0893,0.0893,0.0893,0,0.0243,0.0251,0.0297,0.0349,0.0402,0.0441,0.0482,0.0545,0.0602,0.0721,0.073,0.0808,0.0868,0.0901,0.0913,0.0931,0.0904,0.0868,0.0868,0.0867,0.0844,0.0847,0.0864,0,0,0,0,0,0.0205,0.0218,0.0255,0.0315,0.0365,0.0399,0.0468,0.0512,0.0604,0.0628,0.0691,0.0731,0.0797,0.0834,0.0846,0.0897,0.0899,0.0909,0.0853,0.0901,0.09,0.0877,0,0,0,0,0,0,0.0186,0.0208,0.0235,0.028,0.0314,0.0365,0.0405,0.0461,0.0489,0.0583,0.0616,0.0697,0.0757,0.0778,0.0831,0.0846,0.0802,0.0964,0.0963,0.0902,0.0901,0.0899,0.0875,0,0,0,0,0]},{"header":{"parameterUnit":"m.s-1","parameterCategory":2,"la1":30.2991,"la2":30.254,"lo1":-89.0895,"lo2":-89.0444,"dy":0.0017,"dx":0.0017,"nx":28,"ny":28,"refTime":"2023-08-15T09:00:00:Z","depth":"4","parameterNumber":3,"parameterNumberName":"V-component_of_CURRENTS"},"data":[0,0,0,0,0,0,0,0,0,0,0,0,0,0,0,0,0,0,0,0,0,0,0,0,0,0,0,0,0,0,0,0,0,0,0,0,0,0,0,0,0,0,0,0,0,0,0,0,0,0,0,0,0,0,0,0,0,0,-0.0378,-0.0378,0,-0.0431,-0.0432,-0.0433,-0.0453,-0.0452,-0.0452,-0.0452,-0.0521,-0.0523,-0.0525,0,0,0,0,0,0,0,0,0,0,0,0,0,-0.0337,-0.0337,-0.0378,-0.0378,-0.0379,-0.0431,-0.0432,-0.0433,-0.0453,-0.0452,-0.0452,-0.0452,-0.052,-0.0523,-0.0525,0,0,0,0,0,0,0,0,0,0,0,0,0,-0.037,-0.0338,-0.0377,-0.0394,-0.0396,-0.0431,-0.0432,-0.0433,-0.0453,-0.0452,-0.0452,-0.0452,-0.0519,-0.0522,-0.0526,-0.0553,0,0,-0.0535,-0.0537,0,0,0,0,0,0,0,0,-0.0368,-0.0371,-0.0391,-0.0393,-0.0395,-0.0434,-0.0443,-0.0474,-0.0453,-0.0432,-0.0452,-0.0451,-0.0493,-0.0498,-0.0511,-0.0556,-0.0559,-0.0535,-0.0537,-0.0539,-0.054,0,0,0,0,0,0,0,-0.0366,-0.037,-0.04,-0.0392,-0.0394,-0.0414,-0.0418,-0.0449,-0.0465,-0.0434,-0.0435,-0.044,-0.0494,-0.0507,-0.0512,-0.056,-0.0535,-0.0538,-0.054,-0.0541,-0.0682,-0.0684,0,0,0,0,0,0,-0.0355,-0.0367,-0.0398,-0.0401,-0.0379,-0.0415,-0.042,-0.0423,-0.0465,-0.047,-0.044,-0.0441,-0.0502,-0.0509,-0.0515,-0.0585,-0.0539,-0.0542,-0.0543,-0.0681,-0.0683,-0.0685,0,0,0,0,0,0,-0.0354,-0.0357,-0.0396,-0.0385,-0.0391,-0.0416,-0.042,-0.0424,-0.0453,-0.0469,-0.0475,-0.0465,-0.0502,-0.051,-0.0556,-0.0586,-0.0543,-0.0546,-0.0678,-0.0681,-0.0684,-0.0703,0,0,0,0,0,0,-0.0353,-0.0357,-0.0368,-0.0384,-0.0391,-0.042,-0.042,-0.0425,-0.0454,-0.0456,-0.0493,-0.0498,-0.0502,-0.0552,-0.0559,-0.059,-0.0548,-0.0676,-0.068,-0.0683,-0.07,-0.0706,-0.0711,0,0,0,0,0,-0.0351,-0.0363,-0.0368,-0.0372,-0.0401,-0.042,-0.0426,-0.0443,-0.0456,-0.0468,-0.0499,-0.0497,-0.0579,-0.0555,-0.0564,-0.0596,-0.0674,-0.0679,-0.0683,-0.0697,-0.0704,-0.0711,0,0,0,0,0,0,-0.0357,-0.0367,-0.0372,-0.0389,-0.0404,-0.0423,-0.0443,-0.0456,-0.0492,-0.0502,-0.0518,-0.0526,-0.0579,-0.059,-0.0563,-0.065,-0.0629,-0.0635,-0.0637,-0.0644,-0.0649,-0.062,-0.0551,0,0,0,0,0,-0.0362,-0.0371,-0.0384,-0.04,-0.041,-0.0433,-0.0449,-0.0459,-0.0486,-0.0501,-0.0526,-0.0563,-0.0603,-0.0623,-0.0655,-0.0701,-0.0687,-0.073,-0.0736,-0.074,-0.0725,-0.0724,-0.0726,-0.0699,-0.0699,-0.0698,0,0,-0.0369,-0.0377,-0.0383,-0.0402,-0.042,-0.0431,-0.0442,-0.0469,-0.0482,-0.0505,-0.0545,-0.0585,-0.0621,-0.067,-0.0696,-0.0682,-0.0747,-0.0746,-0.0749,-0.0731,-0.0728,-0.073,-0.0732,-0.0701,-0.0701,-0.07,0,0,-0.0376,-0.0396,-0.0401,-0.0415,-0.0438,-0.045,-0.046,-0.0488,-0.0508,-0.055,-0.0576,-0.0625,-0.0685,-0.0708,-0.0731,-0.0789,-0.0778,-0.0819,-0.082,-0.082,-0.0821,-0.0822,-0.0822,-0.0823,-0.0819,-0.0819,-0.0819,0,-0.0383,-0.0389,-0.0409,-0.0417,-0.0428,-0.0457,-0.0464,-0.049,-0.053,-0.0546,-0.0564,-0.0659,-0.0695,-0.0746,-0.0775,-0.0798,-0.0797,-0.0788,-0.0823,-0.0824,-0.0824,-0.0824,-0.0824,-0.082,-0.082,-0.082,-0.082,0,-0.0387,-0.0397,-0.0407,-0.0419,-0.0436,-0.0452,-0.0478,-0.0504,-0.0539,-0.056,-0.0624,-0.0678,-0.0727,-0.0764,-0.0792,-0.0831,-0.0831,-0.0829,-0.0795,-0.0827,-0.0826,-0.0826,-0.0822,-0.0822,-0.0821,-0.0821,0,0,-0.0381,-0.04,-0.0404,-0.0404,-0.0438,-0.0446,-0.0478,-0.0503,-0.0518,-0.0578,-0.0602,-0.0696,-0.0729,-0.0757,-0.0805,-0.0819,-0.0842,-0.0833,-0.0832,-0.0814,-0.0845,-0.0812,-0.0808,-0.0847,-0.0847,-0.0847,-0.0848,0,-0.0375,-0.0376,-0.0393,-0.0401,-0.0405,-0.0438,-0.0456,-0.0488,-0.0527,-0.0559,-0.0624,-0.0672,-0.0726,-0.0762,-0.0788,-0.0827,-0.0841,-0.0842,-0.0833,-0.0832,-0.0782,-0.0806,-0.0847,-0.0847,-0.0847,-0.0847,-0.0847,0,-0.0369,-0.0368,-0.0369,-0.0378,-0.0384,-0.0398,-0.0426,-0.0447,-0.0499,-0.053,-0.0588,-0.0637,-0.0698,-0.0728,-0.0787,-0.0788,-0.0819,-0.0841,-0.0841,-0.0795,-0.0798,-0.0808,-0.0846,-0.0846,-0.0846,-0.0846,-0.0846,0,-0.0343,-0.0352,-0.0347,-0.0353,-0.0371,-0.0384,-0.0402,-0.0445,-0.0457,-0.0515,-0.0527,-0.0603,-0.0636,-0.0687,-0.0757,-0.0773,-0.0795,-0.0815,-0.081,-0.0808,-0.0826,-0.0825,-0.0836,-0.0836,-0.0836,-0.0836,-0.0836,0,-0.0323,-0.0323,-0.0336,-0.0333,-0.0329,-0.0361,-0.0369,-0.0395,-0.0432,-0.0434,-0.0515,-0.0526,-0.0626,-0.0662,-0.0729,-0.0763,-0.0771,-0.0803,-0.0802,-0.084,-0.084,-0.0827,-0.0826,-0.0836,-0.0836,-0.0836,-0.0836,0,-0.03,-0.0307,-0.03,-0.0312,-0.0316,-0.0319,-0.034,-0.0344,-0.0381,-0.0384,-0.04,-0.0464,-0.0511,-0.0595,-0.0666,-0.0708,-0.0753,-0.0761,-0.0789,-0.0791,-0.0777,-0.0778,-0.0756,-0.0755,-0.0754,-0.0753,-0.0752,0,-0.0286,-0.0282,-0.0279,-0.027,-0.028,-0.0288,-0.0289,-0.0322,-0.0319,-0.0337,-0.0328,-0.0379,-0.0427,-0.0489,-0.0592,-0.0693,-0.0712,-0.073,-0.0769,-0.0765,-0.0767,-0.0769,-0.0771,-0.075,-0.075,-0.075,-0.075,0,-0.0262,-0.0267,-0.0256,-0.0238,-0.0236,-0.0226,-0.0231,-0.0219,-0.0241,-0.026,-0.0254,-0.0313,-0.0356,-0.0455,-0.0528,-0.0608,-0.0718,-0.072,-0.0723,-0.076,-0.0758,-0.0762,-0.0765,-0.0746,-0.0746,-0.0747,-0.0747,0,-0.0247,-0.0235,-0.0222,-0.0207,-0.0197,-0.018,-0.0182,-0.0173,-0.0174,-0.0188,-0.0179,-0.0253,-0.0303,-0.0408,-0.0477,-0.055,-0.0583,-0.0608,-0.0618,-0.0623,-0.0594,-0.0573,-0.0493,0,0,0,0,0,-0.0232,-0.0214,-0.0193,-0.0172,-0.0162,-0.0161,-0.0147,-0.015,-0.0153,-0.0131,-0.0157,-0.0199,-0.0303,-0.0357,-0.0422,-0.048,-0.061,-0.0559,-0.0647,-0.0725,-0.073,-0.0716,0,0,0,0,0,0,-0.0215,-0.0198,-0.0184,-0.0153,-0.0139,-0.0127,-0.0121,-0.0121,-0.0111,-0.0118,-0.0172,-0.0203,-0.0312,-0.0262,-0.0419,-0.0444,-0.0505,-0.0616,-0.0617,-0.0723,-0.0727,-0.073,-0.0718,0,0,0,0,0]}]]